Location: Courcelles
(49.2596°N, 1.7419°E)
Time: 00:12:40
(UTC+00:00)

Cosmos 1954 Rocket - Pass Details

Date: 17 November 2025
Orbit: 748 x 776 km, 74.0° (Epoch: 05 December)

Event Time Altitude Azimuth Distance (km) Brightness Sun altitude
Rises 18:45:06 0° 209° (SSW) 3,238 7.6 -25.2°
Reaches altitude 10° 18:47:30 10° 212° (SSW) 2,313 6.8 -25.6°
Maximum altitude 18:52:44 69° 296° (WNW) 825 4.2 -26.5°
Enters shadow 18:54:16 45° 2° (N) 1,042 4.6 -26.7°
